[[{"header":{"parameterUnit":"m.s-1","parameterCategory":1,"la1":30.2991,"la2":30.254,"lo1":-89.0895,"lo2":-89.0444,"dy":0.0017,"dx":0.0017,"nx":28,"ny":28,"refTime":"2025-07-11T09:00:00:Z","depth":0,"parameterNumber":2,"parameterNumberName":"U-component_of_WINDS"},"data":[0,0,0,0,0,0,0,0,0,0,0,0,0,0,0,0,0,0,0,0,0,0,0,0,0,0,0,0,0,0,0,0,0,0,0,0,0,0,0,0,0,0,0,0,0,0,0,0,0,0,0,0,0,0,0,0,0,0,0.981,0.9812,0,0.9943,0.9945,0.9946,1.0007,1.0007,1.0007,1.0007,1.0147,1.015,1.0154,0,0,0,0,0,0,0,0,0,0,0,0,0,0.9612,0.9616,0.981,0.9812,0.9813,0.9943,0.9945,0.9947,1.0008,1.0007,1.0007,1.0007,1.0145,1.015,1.0154,0,0,0,0,0,0,0,0,0,0,0,0,0,0.9717,0.9617,0.981,0.9859,0.9865,0.9943,0.9945,0.9947,1.0008,1.0007,1.0007,1.0007,1.0144,1.0149,1.0155,1.0194,0,0,1.0173,1.0175,0,0,0,0,0,0,0,0,0.9711,0.9724,0.985,0.9856,0.9863,0.9958,0.9926,1.003,1.0008,0.9954,1.0007,1.0007,1.0084,1.0095,1.012,1.0201,1.0207,1.0173,1.0177,1.0179,1.0181,0,0,0,0,0,0,0,0.9704,0.9719,0.9863,0.9852,0.986,0.9876,0.9891,0.9946,1.0019,0.9958,0.9963,0.9978,1.0088,1.0115,1.0124,1.0209,1.0173,1.0178,1.0182,1.0184,1.0329,1.033,0,0,0,0,0,0,0.9688,0.9712,0.9859,0.9867,0.9785,0.988,0.9896,0.9928,1.0018,1.0032,0.9978,0.998,1.0105,1.0117,1.0129,1.0182,1.0179,1.0184,1.0188,1.0329,1.0329,1.033,0,0,0,0,0,0,0.9683,0.97,0.9853,0.9791,0.9812,0.9883,0.9919,0.9931,0.9958,1.0033,1.0046,0.9992,1.0105,1.0121,1.0178,1.0187,1.0187,1.0192,1.0328,1.0329,1.033,1.0286,0,0,0,0,0,0,0.9677,0.9698,0.9713,0.9791,0.9815,0.9898,0.9919,0.9933,0.9967,0.9971,1.005,1.0062,1.0106,1.0169,1.0183,1.0195,1.0197,1.0328,1.0329,1.0329,1.0287,1.0285,1.0284,0,0,0,0,0,0.967,0.9696,0.9713,0.9731,0.9834,0.9898,0.9912,0.9962,0.9968,0.9984,1.0032,1.006,1.0184,1.0174,1.0191,1.0205,1.0327,1.0328,1.0329,1.0288,1.0286,1.0284,0,0,0,0,0,0,0.9618,0.9707,0.9727,0.9779,0.9831,0.9909,0.993,0.9958,1.0009,1.0011,1.0071,1.0089,1.014,1.0178,1.0166,1.0248,1.0258,1.0263,1.0221,1.0219,1.0218,1.0208,1.0202,0,0,0,0,0,0.9613,0.9656,0.9732,0.977,0.9795,0.9858,0.9888,0.9921,0.9978,1.0,1.0053,1.0107,1.0159,1.0191,1.0243,1.0293,1.0311,1.0311,1.0309,1.0307,1.0311,1.0341,1.0342,1.0333,1.0333,1.0333,0,0,0.9602,0.9656,0.968,0.9761,0.9805,0.985,0.9876,0.9922,0.9957,1.0008,1.0064,1.0104,1.0169,1.0223,1.0249,1.0256,1.0317,1.0309,1.0307,1.0311,1.0342,1.0343,1.0343,1.0333,1.0333,1.0333,0,0,0.9605,0.965,0.9687,0.973,0.9796,0.9838,0.9847,0.9921,0.995,1.0007,1.0046,1.0089,1.0176,1.0221,1.0255,1.0275,1.0304,1.0291,1.0282,1.0311,1.0311,1.0312,1.032,1.0322,1.0294,1.0293,1.0293,0,0.9584,0.9652,0.9703,0.9747,0.9782,0.983,0.9868,0.9908,0.9988,1.0012,1.0018,1.0129,1.0176,1.0241,1.0246,1.0272,1.0285,1.0282,1.0307,1.0308,1.031,1.0318,1.0321,1.0292,1.0292,1.0292,1.0292,0,0.9622,0.9669,0.9691,0.9766,0.9804,0.9845,0.9904,0.9936,0.9966,1.0008,1.0066,1.0124,1.0188,1.0206,1.0237,1.0276,1.0278,1.0295,1.0307,1.0308,1.0317,1.0321,1.0289,1.0289,1.029,1.029,0,0,0.9596,0.9699,0.9706,0.9741,0.9818,0.9856,0.99,0.9962,0.9988,1.0042,1.0081,1.0154,1.017,1.0208,1.0245,1.027,1.0283,1.0284,1.0286,1.0282,1.0331,1.0318,1.0321,1.0302,1.0303,1.0304,1.0326,0,0.961,0.969,0.9738,0.9798,0.9843,0.9889,0.9927,0.9979,1.0019,1.0063,1.0108,1.0159,1.0176,1.02,1.0227,1.0276,1.0294,1.0275,1.034,1.0342,1.0322,1.0325,1.0312,1.033,1.0329,1.033,1.033,0,0.9637,0.9689,0.9754,0.9826,0.9846,0.988,0.9941,0.9983,1.0043,1.007,1.0113,1.015,1.0199,1.0206,1.0276,1.0262,1.0291,1.0319,1.0321,1.033,1.0336,1.0334,1.0337,1.0339,1.0336,1.0336,1.0335,0,0.9612,0.9698,0.9748,0.9777,0.9862,0.9885,0.9922,0.9982,1.0016,1.007,1.0093,1.0152,1.0184,1.023,1.0281,1.0282,1.0346,1.0357,1.0371,1.0369,1.0382,1.0381,1.039,1.0401,1.0401,1.0401,1.04,0,0.9623,0.9661,0.9738,0.9769,0.9813,0.9868,0.9911,0.9952,1.0005,1.0045,1.0089,1.0126,1.0192,1.0238,1.0278,1.033,1.0344,1.0369,1.0379,1.0365,1.0362,1.0385,1.0386,1.0401,1.0401,1.0401,1.0401,0,0.9602,0.9655,0.9713,0.9789,0.9809,0.9839,0.9905,0.9937,0.9979,1.003,1.0045,1.0112,1.0168,1.0224,1.03,1.0327,1.0378,1.0392,1.0357,1.0363,1.0374,1.0372,1.0399,1.0405,1.0411,1.041,1.041,0,0.9605,0.9635,0.9715,0.9745,0.978,0.9828,0.9863,0.9919,0.9954,1.0025,1.0049,1.0108,1.0159,1.0246,1.0302,1.0361,1.0377,1.0382,1.0386,1.0371,1.0377,1.0375,1.0379,1.038,1.038,1.0379,1.0379,0,0.9606,0.9631,0.9679,0.9738,0.9778,0.9827,0.9878,0.99,0.9966,1.0003,1.006,1.0099,1.0176,1.0235,1.03,1.0339,1.0371,1.0377,1.0384,1.037,1.0349,1.0361,1.0353,1.0377,1.0377,1.0377,1.0377,1.0377,0.9598,0.9627,0.9687,0.9741,0.9784,0.9831,0.9865,0.9911,0.996,1.0026,1.0057,1.0115,1.0175,1.0266,1.0304,1.0351,1.036,1.0369,1.0371,1.0372,1.0369,1.0341,1.0363,1.0364,1.0364,1.0364,1.0364,0,0.9601,0.9642,0.969,0.9759,0.9801,0.9826,0.9884,0.9917,0.9967,1.0021,1.0069,1.0136,1.0193,1.0253,1.0314,1.034,1.0356,1.0354,1.0353,1.0362,1.0358,1.0347,1.0341,1.0341,1.034,1.034,1.034,1.034,0.9607,0.9658,0.969,0.9764,0.9806,0.9862,0.9893,0.9936,0.9979,1.0051,1.0098,1.0137,1.0194,1.026,1.0313,1.033,1.0351,1.0345,1.0365,1.0361,1.0362,1.0364,1.0353,1.0348,1.0348,1.0365,1.0365,1.0365]},{"header":{"parameterUnit":"m.s-1","parameterCategory":1,"la1":30.2991,"la2":30.254,"lo1":-89.0895,"lo2":-89.0444,"dy":0.0017,"dx":0.0017,"nx":28,"ny":28,"refTime":"2025-07-11T09:00:00:Z","depth":0,"parameterNumber":3,"parameterNumberName":"V-component_of_WINDS"},"data":[0,0,0,0,0,0,0,0,0,0,0,0,0,0,0,0,0,0,0,0,0,0,0,0,0,0,0,0,0,0,0,0,0,0,0,0,0,0,0,0,0,0,0,0,0,0,0,0,0,0,0,0,0,0,0,0,0,0,3.6672,3.6672,0,3.667,3.667,3.667,3.6676,3.6676,3.6676,3.6676,3.6672,3.6671,3.6671,0,0,0,0,0,0,0,0,0,0,0,0,0,3.6675,3.6675,3.6672,3.6672,3.6672,3.667,3.667,3.667,3.6676,3.6676,3.6676,3.6676,3.6672,3.6671,3.6671,0,0,0,0,0,0,0,0,0,0,0,0,0,3.6673,3.6675,3.6672,3.6674,3.6675,3.667,3.667,3.667,3.6676,3.6676,3.6676,3.6677,3.6672,3.6671,3.6671,3.6663,0,0,3.667,3.6669,0,0,0,0,0,0,0,0,3.6673,3.6673,3.6674,3.6674,3.6675,3.6674,3.667,3.6668,3.6676,3.6675,3.6676,3.6677,3.6672,3.6671,3.667,3.6663,3.6662,3.667,3.6669,3.6669,3.6669,0,0,0,0,0,0,0,3.6674,3.6673,3.6671,3.6674,3.6674,3.6674,3.6674,3.6669,3.6672,3.6675,3.6676,3.6676,3.6672,3.6671,3.667,3.6662,3.667,3.6669,3.6669,3.6669,3.6644,3.6644,0,0,0,0,0,0,3.6674,3.6673,3.6671,3.6671,3.6675,3.6674,3.6674,3.6674,3.6672,3.6672,3.6675,3.6676,3.6671,3.6671,3.667,3.6659,3.6669,3.6669,3.6668,3.6645,3.6644,3.6644,0,0,0,0,0,0,3.6674,3.6674,3.6671,3.6672,3.6672,3.6674,3.6673,3.6673,3.6672,3.6672,3.6672,3.6674,3.6672,3.6671,3.6664,3.6659,3.6668,3.6668,3.6645,3.6645,3.6644,3.6637,0,0,0,0,0,0,3.6674,3.6674,3.6672,3.6672,3.6672,3.6667,3.6673,3.6673,3.6672,3.6673,3.6671,3.6671,3.6672,3.6665,3.6664,3.6658,3.6668,3.6646,3.6645,3.6644,3.6638,3.6637,3.6635,0,0,0,0,0,3.6674,3.667,3.6672,3.6672,3.667,3.6667,3.6666,3.6668,3.6672,3.6669,3.6668,3.6671,3.666,3.6664,3.6663,3.6657,3.6646,3.6645,3.6644,3.6639,3.6637,3.6636,0,0,0,0,0,0,3.6669,3.667,3.6672,3.6669,3.6667,3.6668,3.6665,3.6667,3.6664,3.6665,3.6666,3.6665,3.6658,3.6657,3.6662,3.6648,3.6653,3.6652,3.6649,3.6648,3.6646,3.6647,3.6667,0,0,0,0,0,3.6667,3.6666,3.6666,3.6663,3.6662,3.6663,3.6662,3.6663,3.6662,3.6661,3.666,3.6657,3.6653,3.665,3.6646,3.6638,3.6636,3.6633,3.6632,3.6631,3.6629,3.6622,3.662,3.6641,3.6641,3.6641,0,0,3.6664,3.6665,3.6664,3.6662,3.6661,3.6658,3.6663,3.666,3.6657,3.666,3.6654,3.6653,3.665,3.6641,3.6638,3.664,3.6623,3.6629,3.6629,3.6628,3.6621,3.6619,3.6617,3.6641,3.6641,3.6641,0,0,3.6656,3.6657,3.6654,3.6652,3.6651,3.6652,3.665,3.665,3.6649,3.6643,3.6645,3.664,3.6633,3.663,3.6628,3.6615,3.6617,3.6614,3.6607,3.66,3.6598,3.6597,3.659,3.6589,3.6613,3.6613,3.6613,0,3.6652,3.6649,3.6651,3.6647,3.6645,3.6649,3.6643,3.6642,3.6639,3.6637,3.664,3.6629,3.6627,3.6617,3.6614,3.6612,3.6609,3.6614,3.6598,3.6597,3.6595,3.659,3.6588,3.6612,3.6612,3.6612,3.6612,0,3.6643,3.664,3.6637,3.6634,3.6632,3.6627,3.6627,3.6624,3.6625,3.6624,3.6616,3.6613,3.6608,3.6605,3.6606,3.6594,3.6596,3.6598,3.6604,3.6593,3.6587,3.6585,3.6612,3.6612,3.6612,3.6612,0,0,3.6634,3.6631,3.663,3.6628,3.6625,3.6622,3.6616,3.6611,3.6608,3.6605,3.6598,3.6591,3.6593,3.659,3.659,3.6583,3.6571,3.6587,3.6586,3.6583,3.6555,3.6553,3.6551,3.6572,3.6572,3.6571,3.6555,0,3.6625,3.6617,3.6618,3.6609,3.6605,3.6606,3.6601,3.6597,3.6596,3.659,3.6588,3.6582,3.6586,3.6583,3.6577,3.6574,3.6566,3.6575,3.6564,3.6564,3.6565,3.6548,3.6547,3.6532,3.6553,3.6553,3.6553,0,3.6615,3.6612,3.6603,3.6599,3.6597,3.6592,3.6586,3.6582,3.6577,3.6576,3.6571,3.6571,3.6563,3.6568,3.6555,3.6561,3.6556,3.6553,3.6553,3.6552,3.6558,3.6546,3.6527,3.6525,3.655,3.655,3.655,0,3.6608,3.6601,3.6595,3.6593,3.6588,3.6584,3.6582,3.6577,3.6573,3.6567,3.6564,3.6557,3.6553,3.6546,3.6543,3.6547,3.6529,3.6535,3.6526,3.6526,3.6523,3.6523,3.6503,3.652,3.6521,3.6521,3.6521,0,3.6599,3.6593,3.6591,3.6587,3.6579,3.6578,3.657,3.6568,3.6563,3.6556,3.6557,3.655,3.6547,3.6539,3.6536,3.6525,3.6523,3.652,3.652,3.652,3.652,3.6517,3.6518,3.652,3.652,3.652,3.652,0,3.659,3.6589,3.6581,3.6577,3.6575,3.657,3.6565,3.6559,3.6557,3.6548,3.6546,3.6542,3.6532,3.6528,3.6517,3.6515,3.6501,3.6501,3.6503,3.6503,3.6494,3.6495,3.647,3.6466,3.6488,3.6487,3.6487,0,3.6585,3.658,3.6575,3.6571,3.6568,3.6562,3.6558,3.6555,3.6551,3.6543,3.6538,3.6528,3.6521,3.6505,3.6499,3.649,3.6489,3.6481,3.6488,3.6488,3.6488,3.6488,3.6486,3.648,3.648,3.648,3.648,0,3.6574,3.6573,3.6568,3.6561,3.6556,3.655,3.6545,3.6541,3.6538,3.6532,3.6522,3.6517,3.6504,3.6494,3.6483,3.6478,3.6477,3.6477,3.6475,3.6475,3.6476,3.6474,3.6499,3.6478,3.6478,3.6479,3.6479,3.6479,3.6566,3.6561,3.6556,3.6549,3.6545,3.6539,3.6533,3.6529,3.6522,3.6512,3.651,3.6499,3.6491,3.6477,3.6471,3.6461,3.6463,3.6459,3.6458,3.6457,3.6456,3.6478,3.6459,3.6459,3.6459,3.6459,3.6459,0,3.6555,3.6551,3.6545,3.6537,3.653,3.6531,3.6524,3.6518,3.6509,3.6502,3.6494,3.6481,3.6471,3.6463,3.6452,3.6445,3.6444,3.6442,3.6442,3.644,3.6456,3.6459,3.6442,3.6442,3.6442,3.6442,3.6442,3.6442,3.6548,3.654,3.6537,3.6525,3.652,3.6511,3.6506,3.65,3.6494,3.648,3.6471,3.6467,3.6458,3.6446,3.6435,3.6432,3.6428,3.6425,3.6423,3.6438,3.644,3.6441,3.6444,3.6424,3.6424,3.6408,3.6408,3.6408]}]]